Location: Nairn
(57.5833°N, 3.8667°W)
Time: 15:13:15
(UTC+00:00)

Vanguard 1 - Pass Details

Date: 29 November 2020
Orbit: 649 x 3834 km, 34.3° (Epoch: 14 January)

Event Time Altitude Azimuth Distance (km) Brightness Sun altitude
Rises 10:54:01 0° 253° (WSW) 5,159 13.8 9.5°
Reaches altitude 10° 11:00:14 10° 227° (SW) 4,871 14.1 9.7°
Maximum altitude 11:05:11 13° 206° (SSW) 5,156 14.7 9.9°
Drops below altitude 10° 11:11:00 10° 186° (S) 5,891 15.8 10.1°
Sets 11:21:02 0° 164° (SSE) 7,575 16.8 10.3°
